Weather History for Alliance, NE

Change the Weather History Date:

Sunday, July 7, 2013

  Actual Average Record
Temperature  
Mean Temperature 77 °F 71 °F  
Max Temperature 91 °F 87 °F 103 °F (1930)
Min Temperature 62 °F 55 °F 41 °F (1908)
Degree Days  
Heating Degree Days 0 0  
Month to date heating degree days 0 5  
Since 1 June heating degree days 62 98  
Since 1 July heating degree days 0 5  
Cooling Degree Days 12 7  
Month to date cooling degree days 48 43  
Year to date cooling degree days 194 141  
Since 1 June cooling degree days 172 131  
Growing Degree Days 26 (Base 50)    
Moisture  
Dew Point 57 °F    
Average Humidity 54    
Maximum Humidity 78    
Minimum Humidity 29    
Precipitation  
Precipitation T in 0.08 in 1.21 in (2002)
Month to date precipitation T 0.53  
Year to date precipitation 6.72 8.92  
Sea Level Pressure  
Sea Level Pressure 29.90 in    
Wind  
Wind Speed 11 mph (ENE)    
Max Wind Speed 31 mph    
Max Gust Speed 39 mph    
Visibility 10 miles    
Events Rain , Thunderstorm    
T = Trace of Precipitation, MM = Missing Value Source: NWS Daily Summary

Daily Weather History Graph

Daily Weather History Graph

Search for Another Location

Airport:

Trip Planner

Search our weather history database for the weather conditions in past years. The results will help you decide how hot, cold, wet, or windy it might be!

Date:

Astronomy

Jul. 07, 2013 Rise Set
Actual Time 5:22 AM MDT 8:29 PM MDT
Civil Twilight 4:48 AM MDT 9:03 PM MDT
Nautical Twilight 4:05 AM MDT 9:46 PM MDT
Astronomical Twilight 3:13 AM MDT 10:37 PM MDT
Moon 5:02 AM MDT (7/7) 7:53 PM MDT (7/7)
Length of Visible Light 16h 14m
Length of Day
15h 06m
Waning Crescent, 0% of the Moon is Illuminated
Jul 7
Waning Crescent
Jul 8
New
Jul 15
First Quarter
Jul 22
Full
Jul 29
Last Quarter

Hourly Weather History & Observations

Time (MDT) Temp. Heat Index Dew Point Humidity Pressure Visibility Wind Dir Wind Speed Gust Speed Precip Events Conditions
12:53 AM 66.0 °F - 57.9 °F 75% 29.83 in 10.0 mi NE 10.4 mph - N/A   Clear
1:53 AM 66.9 °F - 55.0 °F 66% 29.83 in 10.0 mi ENE 6.9 mph - N/A   Clear
2:39 AM 68.0 °F - 55.4 °F 64% 30.02 in 10.0 mi North 21.9 mph 28.8 mph N/A   Mostly Cloudy
2:53 AM 66.9 °F - 55.9 °F 68% 29.86 in 10.0 mi North 24.2 mph 34.5 mph N/A   Mostly Cloudy
3:53 AM 64.9 °F - 54.0 °F 68% 29.83 in 10.0 mi NNE 24.2 mph 28.8 mph N/A   Clear
4:53 AM 66.9 °F - 53.1 °F 61% 29.83 in 10.0 mi NE 15.0 mph 23.0 mph N/A   Mostly Cloudy
5:53 AM 66.9 °F - 54.0 °F 63% 29.84 in 10.0 mi NNE 10.4 mph - N/A   Scattered Clouds
6:22 AM 68.0 °F - 53.6 °F 60% 29.97 in 10.0 mi East 8.1 mph - N/A Thunderstorm Thunderstorm
6:53 AM 64.9 °F - 55.9 °F 73% 29.85 in 7.0 mi NE 10.4 mph - 0.00 in Rain , Thunderstorm Light Thunderstorms and Rain
7:22 AM 62.6 °F - 57.2 °F 82% 30.03 in 10.0 mi North 12.7 mph - 0.00 in   Mostly Cloudy
7:53 AM 62.1 °F - 57.9 °F 86% 29.91 in 10.0 mi North 12.7 mph - 0.00 in   Overcast
8:20 AM 62.6 °F - 57.2 °F 82% 30.05 in 10.0 mi North 10.4 mph - 0.00 in Rain , Thunderstorm Light Rain
8:48 AM 64.4 °F - 57.2 °F 77% 30.05 in 10.0 mi North 13.8 mph - 0.00 in   Mostly Cloudy
8:53 AM 64.0 °F - 57.9 °F 80% 29.94 in 10.0 mi North 17.3 mph 24.2 mph 0.00 in   Scattered Clouds
9:53 AM 71.1 °F - 57.9 °F 63% 29.93 in 10.0 mi ENE 13.8 mph 20.7 mph N/A   Mostly Cloudy
10:53 AM 75.9 °F - 57.0 °F 52% 29.92 in 10.0 mi ENE 9.2 mph - N/A   Clear
11:53 AM 81.0 °F 80.8 °F 55.9 °F 42% 29.91 in 10.0 mi SSE 9.2 mph - N/A   Clear
12:53 PM 84.0 °F 83.3 °F 57.0 °F 40% 29.90 in 10.0 mi ESE 10.4 mph 16.1 mph N/A   Clear
1:53 PM 84.9 °F 84.2 °F 57.9 °F 40% 29.89 in 10.0 mi SSE 8.1 mph 17.3 mph N/A   Clear
2:53 PM 87.1 °F 85.9 °F 57.0 °F 36% 29.87 in 10.0 mi Calm Calm - N/A   Clear
3:53 PM 88.0 °F 86.1 °F 55.0 °F 32% 29.85 in 10.0 mi Calm Calm - N/A   Clear
4:53 PM 90.0 °F 87.5 °F 53.1 °F 28% 29.82 in 10.0 mi SE 6.9 mph - N/A   Clear
5:53 PM 88.0 °F 85.7 °F 53.1 °F 30% 29.81 in 10.0 mi East 8.1 mph - N/A   Scattered Clouds
6:53 PM 88.0 °F 86.5 °F 55.9 °F 34% 29.82 in 10.0 mi SE 8.1 mph - N/A   Clear
7:53 PM 78.1 °F - 63.0 °F 60% 29.86 in 10.0 mi East 15.0 mph 24.2 mph N/A   Clear
8:53 PM 73.9 °F - 62.1 °F 66% 29.89 in 10.0 mi East 10.4 mph - N/A   Clear
9:53 PM 72.0 °F - 63.0 °F 73% 29.89 in 10.0 mi East 10.4 mph - N/A   Clear
10:53 PM 71.1 °F - 63.0 °F 75% 29.92 in 10.0 mi ESE 12.7 mph - N/A   Clear
11:53 PM 70.0 °F - 62.1 °F 76% 29.94 in 10.0 mi ESE 8.1 mph - N/A   Scattered Clouds